Weather in Pitelino

Russia / Ryazan Oblast     54°34′31″N   41°48′55″E
temp.,
°C
wind,
m/s
gust,
m/s
humid.,
%
clouds,
%
prec.,
mm/h
press.,
hPa
HPBL,
m
21 january, fri
fri2100:00−11s71785100 0.0 1011407
03:00−11s71689100 0.0 1010435
06:00−10s71593100 0.1 1008435
09:00−9sse81794100 1.1 1008511
12:00−8sse81794100 1.1 1007594
15:00−7sse81694100 2.1 1005811
18:00−7sse81692100 0.7 1004696
21:00−6sse71594100 0.9 1003582
22 january, sat
sat2200:00−5s5119496 0.3 1005349
03:00−8sse5119470 0.3 1006250
06:00−8sse51294100 0.0 1007323
09:00−8sse51193100 0.0 1009368
12:00−7sse5109497 0.2 1010406
15:00−6sse489486 0.3 1012390
18:00−8sse379794 0.1 1014173
21:00−11sse239865 0.1 101654
23 january, sun
sun2300:00−16s2410097 0.0 101842
03:00−15sse229971 0.1 102030
06:00−14sse249772 0.1 102280
09:00−19sse2210090 0.1 102531
12:00−12sse119580 0.0 102780
15:00−12ene1197100 0.1 102915
18:00−15ne229898 0.0 103114
21:00−16nne22100100 0.0 103324
24 january, mon
mon2400:00−16nne349989 0.0 103447
03:00−13nne369886 0.0 103490
06:00−11ne389888 0.0 1034121
09:00−10ne389772 0.0 1035137
12:00−7ene379349 0.0 1035218
15:00−7ene369285 0.0 1035129
18:00−10ene3694100 0.0 103589
21:00−14e239732 0.0 103538
25 january, tue
tue2500:00−18ese229962 0.0 103418
03:00−20se2210062 0.0 103319
06:00−20sse2210080 0.0 103229
09:00−17sse3796100 0.0 103188
12:00−11s378998 0.0 1029181
15:00−10sse369392 0.0 1027151
18:00−14sse369888 0.0 102668
21:00−15s399784 0.0 1025129